{"data":{"norad_id":55269,"epoch":"2026-05-25T04:40:51.534624Z","epoch_age_seconds":51447,"freshness":"FRESH","line1":"1 55269U 23010A   26145.19504091 -.00000034  00000+0  49354-5 0  9997","line2":"2 55269  69.9988 211.6374 0003794 266.8243  93.2482 14.98334717184521","mean_motion":14.98334717,"eccentricity":0.0003794,"inclination_deg":69.9988,"raan_deg":211.6374,"arg_perigee_deg":266.8243,"mean_anomaly_deg":93.2482,"bstar":4.9354e-6,"rev_number":18452,"period_min":96.106696565318,"perigee_km":569.40440640073,"apogee_km":574.67820169785,"semimajor_km":6950.1783040493,"source":"CELESTRAK","updated_at":"2026-05-25T13:38:17.730434Z"}}